COSMOS 249 DEB, 3695

Orbit data source: Space-Track

COSMOS 249 DEB, 3695 is space debris in LEO originally from a launch on Sun, 20 Oct 1968 UTC launched from the Tyuratam Missile And Space Complex (TTMTR). Debris objects in space refer to the collection of defunct objects orbiting the Earth. Examples of debris include non-operational satellites, rocket bodies, and fragments generated from explosions, collisions, or faulty payload assembly.

Loading next visibility...
Identifier
3695, 1968-091AL
Orbit
LEO
Country
Flag of CISCIS
Related business
Manufacturer
Unknown
Mission
Spacecraft
Bus & Motor
Unknown
Mass
Unknown
Launch date (UTC)
1968-10-20 (57 years ago)
Launch vehicle
Unknown
Launch site
Tyuratam Missile And Space Complex (TTMTR)
Object type
Payload
Rocket body
Debris
Shape & HBR
Unknown shape, 0.1 m
Radar Cross Section
Small (<0.1 m²)

Expand to show TLE details & history
Last TLE update: 1 day ago

TLE from 1 day ago
0 COSMOS 249 DEB
1 03695U 68091AL  25348.41372655  .00001229  00000-0  13805-2 0  9995
2 03695  62.2404 355.6120 0656434 193.7391 164.4960 13.06745408648046
Epoch: 2025-12-14T09:55Z
TLE epoch observation values (Epoch: 2025-12-14T09:55:45.973Z)
Latitude
-0.00004°
Longitude
123.34343°
Altitude
1,721.196 km
Speed
6.791 km/s
True Right ascension
23h 42m 26s
True Declination
0° 00' 00"
Sunlit
Object was in daylight at epoch
Visualization orbit readout
Latitude
Unknown
Longitude
Unknown
Altitude
Unknown
Speed
Unknown
Apparent Right ascension
Unknown
Apparent Declination
Unknown
Sunlit
N/A
Visualization observer readout
Local Sidereal Time
17:07:53
Azimuth
Unknown
Elevation
Unknown
Doppler factor
Unknown
Orbital elements
Apogee altitude
1,734.5 km
Perigee altitude
735.027 km
Semi-major axis
7,612.9 km
Eccentricity
0.06564
Inclination
62.2404°
RAAN
355.612°
Arg. of periapsis
193.7391°
True anomaly
166.35868°
Mean anomaly
164.496°
Eccentric anomaly
165.44142°
Mean motion
3.26752 °/min
Orbital period
110.18 mins
BSTAR
0.0013805
Loading maneuver chart data...
Computing Atmospheric mass density...
Loading historical data...
Loading historical data...
Loading historical data...
Loading historical data...
Loading historical data...
Loading historical data...
Loading historical data...

Documentation

Showing up to 5 results
|